JTC427 GMMN-LPMA

Flight info

Callsign JTC427
Flight time N/A
Altitude 38000
Route ODAXA UH899 IBALU DCT SUBAL/N0510F390 DCT LIDRO
Aircraft C750/M-SBDE3FGHRWXY/S

Departure

Time 2026-05-07 08:46
Airport Mohammed V International Airport (GMMN)

Arrival

Time N/A
Airport Cristiano Ronaldo International Airport (LPMA)
Time Latitude Longitude Altitude Speed Heading
2026-05-07 08:25 33.36992 -7.58300 649 ft 0 kts 119°
2026-05-07 08:36 33.36992 -7.58301 649 ft 0 kts 119°
2026-05-07 08:38 33.36979 -7.58279 652 ft 4 kts 133°
2026-05-07 08:38 33.36963 -7.58269 649 ft 3 kts 162°
2026-05-07 08:38 33.36947 -7.58277 650 ft 4 kts 216°
2026-05-07 08:39 33.36920 -7.58340 651 ft 13 kts 253°
2026-05-07 08:39 33.36873 -7.58455 649 ft 17 kts 202°
2026-05-07 08:39 33.36764 -7.58432 651 ft 16 kts 164°
2026-05-07 08:39 33.36672 -7.58400 649 ft 15 kts 164°
2026-05-07 08:41 33.36600 -7.58376 649 ft 14 kts 164°
2026-05-07 08:41 33.36529 -7.58351 649 ft 13 kts 164°
2026-05-07 08:41 33.36489 -7.58338 651 ft 13 kts 164°
2026-05-07 08:42 33.36406 -7.58310 649 ft 12 kts 164°
2026-05-07 08:42 33.36324 -7.58282 649 ft 12 kts 164°
2026-05-07 08:42 33.36245 -7.58255 649 ft 11 kts 164°
2026-05-07 08:42 33.36173 -7.58230 649 ft 10 kts 164°
2026-05-07 08:43 33.36105 -7.58205 649 ft 11 kts 164°
2026-05-07 08:43 33.36021 -7.58179 650 ft 14 kts 163°
2026-05-07 08:43 33.35917 -7.58144 649 ft 17 kts 164°
2026-05-07 08:43 33.35793 -7.58101 649 ft 20 kts 163°
2026-05-07 08:44 33.35661 -7.58056 649 ft 19 kts 164°
2026-05-07 08:44 33.35567 -7.58103 649 ft 16 kts 256°
2026-05-07 08:44 33.35547 -7.58195 647 ft 10 kts 254°
2026-05-07 08:44 33.35526 -7.58284 644 ft 12 kts 255°
2026-05-07 08:45 33.35545 -7.58372 643 ft 11 kts 327°
2026-05-07 08:45 33.35609 -7.58396 642 ft 0 kts 343°
2026-05-07 08:46 33.35628 -7.58402 642 ft 17 kts 343°
2026-05-07 08:46 33.36099 -7.58565 642 ft 123 kts 344°
2026-05-07 08:46 33.37062 -7.58900 982 ft 150 kts 343°
2026-05-07 08:46 33.38097 -7.59252 1620 ft 163 kts 345°
2026-05-07 08:47 33.39227 -7.59816 2062 ft 191 kts 328°
2026-05-07 08:47 33.40176 -7.61048 2444 ft 220 kts 301°
2026-05-07 08:47 33.40685 -7.62846 2751 ft 227 kts 292°
2026-05-07 08:47 33.41587 -7.64334 3770 ft 220 kts 318°
2026-05-07 08:48 33.42748 -7.65502 4893 ft 217 kts 317°
2026-05-07 08:48 33.43748 -7.66827 5951 ft 215 kts 308°
2026-05-07 08:48 33.44637 -7.68260 6983 ft 214 kts 306°
2026-05-07 08:48 33.45537 -7.69684 8016 ft 215 kts 307°
2026-05-07 08:49 33.46447 -7.71079 9063 ft 215 kts 307°
2026-05-07 08:49 33.47355 -7.72474 10107 ft 212 kts 306°
2026-05-07 08:49 33.48248 -7.73854 11060 ft 207 kts 306°
2026-05-07 08:49 33.49120 -7.75204 12006 ft 203 kts 305°
2026-05-07 08:50 33.49977 -7.76529 12943 ft 199 kts 304°
2026-05-07 08:50 33.50816 -7.77828 13860 ft 195 kts 304°
2026-05-07 08:50 33.51651 -7.79100 14648 ft 193 kts 304°
2026-05-07 08:50 33.52467 -7.80358 15436 ft 190 kts 304°
2026-05-07 08:51 33.53266 -7.81605 16228 ft 187 kts 304°
2026-05-07 08:51 33.54039 -7.82811 17007 ft 185 kts 303°
2026-05-07 08:51 33.54811 -7.84033 17826 ft 183 kts 303°
2026-05-07 08:51 33.55583 -7.85236 18580 ft 181 kts 304°
2026-05-07 08:52 33.56355 -7.86426 19270 ft 180 kts 304°
2026-05-07 08:52 33.57124 -7.87614 19959 ft 180 kts 304°
2026-05-07 08:52 33.57889 -7.88797 20660 ft 179 kts 304°
2026-05-07 08:52 33.58723 -7.89914 21334 ft 184 kts 316°
2026-05-07 08:53 33.59784 -7.90778 22032 ft 184 kts 319°
2026-05-07 08:53 33.60816 -7.91650 22742 ft 182 kts 318°
2026-05-07 08:53 33.61835 -7.92513 23451 ft 181 kts 318°
2026-05-07 08:53 33.62865 -7.93379 24051 ft 180 kts 318°
2026-05-07 08:54 33.63889 -7.94238 24638 ft 179 kts 319°
2026-05-07 08:54 33.64899 -7.95087 25220 ft 178 kts 319°
2026-05-07 08:54 33.65908 -7.95935 25802 ft 176 kts 319°
2026-05-07 08:54 33.66908 -7.96776 26386 ft 175 kts 319°
2026-05-07 08:55 33.67904 -7.97613 26962 ft 174 kts 319°
2026-05-07 08:55 33.68883 -7.98437 27532 ft 173 kts 319°
2026-05-07 08:55 33.69864 -7.99262 28136 ft 172 kts 318°
2026-05-07 08:55 33.70824 -8.00071 28705 ft 170 kts 319°
2026-05-07 08:56 33.71792 -8.00886 29272 ft 169 kts 318°
2026-05-07 08:56 33.72747 -8.01690 29832 ft 168 kts 319°
2026-05-07 08:56 33.73704 -8.02496 30329 ft 169 kts 319°
2026-05-07 08:56 33.74711 -8.03353 30421 ft 189 kts 319°
2026-05-07 08:57 33.75853 -8.04321 30450 ft 213 kts 320°
2026-05-07 08:57 33.77125 -8.05394 30459 ft 237 kts 320°
2026-05-07 08:57 33.78545 -8.06589 30462 ft 261 kts 320°
2026-05-07 08:57 33.80098 -8.07899 30462 ft 284 kts 321°
2026-05-07 08:58 33.81750 -8.09293 30460 ft 305 kts 321°
2026-05-07 08:58 33.83537 -8.10802 30457 ft 326 kts 321°
2026-05-07 08:58 33.85444 -8.12413 30497 ft 344 kts 321°
2026-05-07 08:58 33.87448 -8.14106 30584 ft 360 kts 321°
2026-05-07 08:59 33.89535 -8.15871 30691 ft 374 kts 321°
2026-05-07 08:59 33.91688 -8.17694 30715 ft 389 kts 321°
2026-05-07 08:59 33.93942 -8.19605 30736 ft 403 kts 322°
2026-05-07 08:59 33.96275 -8.21583 30781 ft 417 kts 322°
2026-05-07 09:00 33.98617 -8.23605 31084 ft 420 kts 319°
2026-05-07 09:00 34.00773 -8.25887 31815 ft 412 kts 314°
2026-05-07 09:00 34.02785 -8.28324 32482 ft 409 kts 313°
2026-05-07 09:00 34.04796 -8.30738 33125 ft 407 kts 313°
2026-05-07 09:01 34.06798 -8.33134 33775 ft 405 kts 313°
2026-05-07 09:01 34.08771 -8.35515 34357 ft 403 kts 313°
2026-05-07 09:01 34.10744 -8.37906 34860 ft 402 kts 313°
2026-05-07 09:01 34.12725 -8.40300 35327 ft 403 kts 313°
2026-05-07 09:02 34.14708 -8.42693 35807 ft 404 kts 313°
2026-05-07 09:02 34.16654 -8.45045 36287 ft 404 kts 313°
2026-05-07 09:02 34.18639 -8.47452 36803 ft 404 kts 313°
2026-05-07 09:02 34.20621 -8.49860 37319 ft 404 kts 313°
2026-05-07 09:03 34.22602 -8.52268 37818 ft 404 kts 313°
2026-05-07 09:03 34.24571 -8.54660 38303 ft 405 kts 313°
2026-05-07 09:03 34.26556 -8.57075 38768 ft 405 kts 313°
2026-05-07 09:03 34.28543 -8.59494 39145 ft 406 kts 313°
2026-05-07 09:04 34.30533 -8.61918 39518 ft 407 kts 313°
2026-05-07 09:04 34.32488 -8.64301 39887 ft 408 kts 313°
2026-05-07 09:04 34.34485 -8.66738 40277 ft 408 kts 312°
2026-05-07 09:04 34.36486 -8.69180 40667 ft 409 kts 312°
2026-05-07 09:05 34.38477 -8.71649 41048 ft 409 kts 309°
2026-05-07 09:05 34.40202 -8.74346 41410 ft 408 kts 302°
2026-05-07 09:05 34.41608 -8.77319 41821 ft 406 kts 294°
2026-05-07 09:05 34.42656 -8.80490 42251 ft 406 kts 287°
2026-05-07 09:06 34.43330 -8.83801 42658 ft 405 kts 279°
2026-05-07 09:06 34.43622 -8.87178 42999 ft 407 kts 273°
2026-05-07 09:06 34.43521 -8.90649 42981 ft 418 kts 266°
2026-05-07 09:06 34.43231 -8.94134 42989 ft 426 kts 265°
2026-05-07 09:07 34.42660 -9.01418 42987 ft 442 kts 266°
2026-05-07 09:07 34.42046 -9.08938 42992 ft 454 kts 265°
2026-05-07 09:08 34.41425 -9.16604 42991 ft 463 kts 265°
2026-05-07 09:08 34.40788 -9.24342 42986 ft 466 kts 265°
2026-05-07 09:09 34.40145 -9.32125 42987 ft 466 kts 265°
2026-05-07 09:09 34.39494 -9.39935 42990 ft 466 kts 265°
2026-05-07 09:10 34.38840 -9.47715 42978 ft 465 kts 265°
2026-05-07 09:10 34.38187 -9.55438 42975 ft 465 kts 265°
2026-05-07 09:11 34.37526 -9.63189 42976 ft 465 kts 265°
2026-05-07 09:11 34.36858 -9.70964 42980 ft 465 kts 265°
2026-05-07 09:12 34.36187 -9.78715 42985 ft 465 kts 265°
2026-05-07 09:12 34.35509 -9.86483 42983 ft 461 kts 265°
2026-05-07 09:13 34.34837 -9.94139 42982 ft 462 kts 265°
2026-05-07 09:13 34.34149 -10.01880 42984 ft 463 kts 264°
2026-05-07 09:14 34.33274 -10.09569 42980 ft 463 kts 263°
2026-05-07 09:14 34.32288 -10.17261 42977 ft 463 kts 262°
2026-05-07 09:15 34.31282 -10.24917 42985 ft 462 kts 262°
2026-05-07 09:15 34.30272 -10.32540 42989 ft 462 kts 262°
2026-05-07 09:16 34.29253 -10.40182 42989 ft 462 kts 262°
2026-05-07 09:16 34.28226 -10.47840 42987 ft 462 kts 262°
2026-05-07 09:17 34.27198 -10.55467 42987 ft 461 kts 262°
2026-05-07 09:17 34.26170 -10.63060 42981 ft 460 kts 262°
2026-05-07 09:18 34.25134 -10.70675 42986 ft 461 kts 262°
2026-05-07 09:18 34.24089 -10.78314 42985 ft 461 kts 262°
2026-05-07 09:19 34.23043 -10.85920 42992 ft 461 kts 262°
2026-05-07 09:19 34.21994 -10.93509 42985 ft 461 kts 262°
2026-05-07 09:20 34.20937 -11.01115 42983 ft 461 kts 262°
2026-05-07 09:20 34.19871 -11.08755 42985 ft 461 kts 262°
2026-05-07 09:21 34.18804 -11.16362 42984 ft 461 kts 262°
2026-05-07 09:21 34.17736 -11.23943 42986 ft 461 kts 261°
2026-05-07 09:22 34.16655 -11.31575 42983 ft 461 kts 261°
2026-05-07 09:22 34.15571 -11.39194 42985 ft 461 kts 261°
2026-05-07 09:23 34.14484 -11.46796 42982 ft 461 kts 261°
2026-05-07 09:23 34.13389 -11.54414 42981 ft 461 kts 261°
2026-05-07 09:24 34.12300 -11.61953 42982 ft 461 kts 261°
2026-05-07 09:24 34.11195 -11.69571 42982 ft 461 kts 261°
2026-05-07 09:25 34.10085 -11.77184 42984 ft 461 kts 261°
2026-05-07 09:25 34.09157 -11.83531 42985 ft 464 kts 261°
2026-05-07 09:26 34.07848 -11.92430 42991 ft 467 kts 261°
2026-05-07 09:26 34.06708 -12.00145 42996 ft 468 kts 261°
2026-05-07 09:27 34.05756 -12.06564 43003 ft 468 kts 261°
2026-05-07 09:28 34.04026 -12.18150 43003 ft 468 kts 261°
2026-05-07 09:28 34.02870 -12.25850 43004 ft 468 kts 261°
2026-05-07 09:29 34.01706 -12.33568 43003 ft 468 kts 261°
2026-05-07 09:29 34.00548 -12.41210 42997 ft 468 kts 261°
2026-05-07 09:30 33.99374 -12.48923 42996 ft 468 kts 261°
2026-05-07 09:30 33.98196 -12.56632 42999 ft 468 kts 261°